User: anonymous   Login
Location: Rio Negrinho
(26.2394°S, 49.4999°W)
Time: 15:45:46
(UTC+00:00)
Language:

SMAP - Orbit

View from above orbital plane
View from above orbital plane
View from above satellite
View from above satellite

Ground track
Ground track

The orbit data is extracted from the following two-line orbital elements,

1 40376U 15003A   20225.45576544  .00000026  00000-0  14063-4 0  9996
2 40376  98.1226 231.1633 0001572 107.7443 252.3933 14.63360034295418
Epoch (UTC): 12 August 2020 10:56:18
Eccentricity: 0.0001572
inclination: 98.1226°
perigee height: 681 km
apogee height: 683 km
right ascension of ascending node: 231.1633°
argument of perigee: 107.7443°
revolutions per day: 14.63360034
mean anomaly at epoch: 252.3933°
orbit number at epoch: 29541

The dashed part of the orbit path shows where the satellite is in the earth's shadow,  

DLR